IRIDIUM 45 [+] (25104 NORAD) Tracking and Keplerian Element Data

This shows tracking and keplerian element data for the satellite.

Feedback or suggestion? Click here.




ElementValue
Catalog25104
NameIRIDIUM 45 [+]
Epoch Orbit7682
Epoch Day198.85873092
Epoch Year2018
RAAN121.8716
Inclination86.3977
Eccentricity0.0003042
Argument of Perigee85.7192
Mean Anonmoly274.4352
Mean Motion14.34218126
Decay Rate1.74E-06
L11 25104U 97082A 18198.85873092 .00000174 00000-0 55180-4 0 9992
L22 25104 86.3977 121.8716 0003042 85.7192 274.4352 14.34218126 76823

Live tracking and technical data element details for IRIDIUM 45 [+] (NORAD 25104). IRIDIUM 45 [+] can be tracked NOW for your location showing map with azimuth and elevation plus other details from your city location.

Track the satellite on the map from your city or location and see movement details for azimuth, elevation, latitude, longitude, range, height, and movement on the map or in text.







IsCatalogInMostPopularTable: catalog: 25104, numindb: 32
Update: records affected: 1



GetName: 25104 IRIDIUM 45 [+]

Hit Count: updated at: Fri, 20 Jul 2018 07:03:12 GMT